| time (UTC) | temp F | wind direction | speed MPH | gust MPH | rain 1hr in | rain 24hr in | rain mn in | humidity % | barometer mb |
| 20260506100019 | 45 | 32 | 0.0 | 2.0 | 0.00 | 0.00 | 0.00 | 95 | 1015.5 |
| 20260506095517 | 45 | 61 | 0.0 | 1.0 | 0.00 | 0.00 | 0.00 | 96 | 1015.6 |
| 20260506095013 | 45 | 61 | 0.0 | 0.0 | 0.00 | 0.00 | 0.00 | 96 | 1015.6 |
| 20260506094511 | 45 | 61 | 0.0 | 0.0 | 0.00 | 0.00 | 0.00 | 96 | 1015.5 |
| 20260506094009 | 45 | 61 | 0.0 | 0.0 | 0.00 | 0.00 | 0.00 | 95 | 1015.5 |
| 20260506093507 | 45 | 61 | 0.0 | 0.0 | 0.00 | 0.00 | 0.00 | 95 | 1015.4 |
| 20260506093004 | 45 | 61 | 0.0 | 0.0 | 0.00 | 0.00 | 0.00 | 95 | 1015.6 |
| 20260506092502 | 45 | 61 | 0.0 | 0.0 | 0.00 | 0.00 | 0.00 | 95 | 1015.6 |
| 20260506091958 | 45 | 61 | 0.0 | 0.0 | 0.00 | 0.00 | 0.00 | 95 | 1015.6 |
| 20260506091457 | 45 | 61 | 0.0 | 0.0 | 0.00 | 0.00 | 0.00 | 95 | 1015.9 |
| 20260506090953 | 45 | 61 | 0.0 | 0.0 | 0.00 | 0.00 | 0.00 | 95 | 1015.7 |
| 20260506090451 | 45 | 61 | 0.0 | 0.0 | 0.00 | 0.00 | 0.00 | 95 | 1015.8 |
| 20260506085947 | 45 | 61 | 0.0 | 0.0 | 0.00 | 0.00 | 0.00 | 95 | 1015.6 |
| 20260506085444 | 45 | 61 | 0.0 | 0.0 | 0.00 | 0.00 | 0.00 | 95 | 1015.7 |
| 20260506084941 | 45 | 61 | 0.0 | 0.0 | 0.00 | 0.00 | 0.00 | 95 | 1015.4 |
| 20260506084438 | 45 | 61 | 0.0 | 0.0 | 0.00 | 0.00 | 0.00 | 95 | 1015.7 |
| 20260506083934 | 45 | 61 | 0.0 | 0.0 | 0.00 | 0.00 | 0.00 | 95 | 1015.5 |
| 20260506083431 | 46 | 61 | 0.0 | 0.0 | 0.00 | 0.00 | 0.00 | 95 | 1015.8 |
| 20260506082928 | 46 | 61 | 0.0 | 0.0 | 0.00 | 0.00 | 0.00 | 95 | 1015.4 |
| 20260506082425 | 45 | 61 | 0.0 | 0.0 | 0.00 | 0.00 | 0.00 | 95 | 1015.4 |
| 20260506081921 | 45 | 61 | 0.0 | 0.0 | 0.00 | 0.00 | 0.00 | 94 | 1015.1 |
| 20260506081420 | 45 | 61 | 0.0 | 0.0 | 0.00 | 0.00 | 0.00 | 94 | 1014.9 |
| 20260506080916 | 45 | 61 | 0.0 | 0.0 | 0.00 | 0.00 | 0.00 | 94 | 1014.9 |
| 20260506080413 | 45 | 61 | 0.0 | 0.0 | 0.00 | 0.00 | 0.00 | 93 | 1014.8 |
| 20260506073357 | 45 | 60 | 0.0 | 0.0 | 0.00 | 0.00 | 0.00 | 92 | 1014.6 |
| 20260506072854 | 45 | 60 | 0.0 | 0.0 | 0.00 | 0.00 | 0.00 | 91 | 1014.8 |
| 20260506072351 | 46 | 60 | 0.0 | 0.0 | 0.00 | 0.00 | 0.00 | 90 | 1014.7 |
| 20260506071849 | 45 | 60 | 0.0 | 0.0 | 0.00 | 0.00 | 0.00 | 89 | 1014.7 |
| 20260506071347 | 45 | 60 | 0.0 | 0.0 | 0.00 | 0.00 | 0.00 | 88 | 1015.1 |
| 20260506070843 | 45 | 60 | 0.0 | 0.0 | 0.00 | 0.00 | 0.00 | 87 | 1015.0 |
| 20260506070341 | 46 | 60 | 0.0 | 0.0 | 0.00 | 0.00 | 0.00 | 86 | 1015.0 |
| 20260506062318 | 47 | 46 | 0.0 | 1.0 | 0.00 | 0.00 | 0.00 | 82 | 1015.8 |
| 20260506061814 | 47 | 48 | 0.0 | 2.0 | 0.00 | 0.00 | 0.00 | 82 | 1016.0 |
| 20260506061311 | 47 | 21 | 1.0 | 3.0 | 0.00 | 0.00 | 0.00 | 80 | 1015.9 |
| 20260506060809 | 47 | 334 | 3.0 | 5.0 | 0.00 | 0.00 | 0.00 | 80 | 1015.8 |
| 20260506060307 | 47 | 30 | 1.0 | 3.0 | 0.00 | 0.00 | 0.00 | 79 | 1015.7 |
| 20260506051238 | 48 | 54 | 0.0 | 1.0 | 0.00 | 0.00 | 0.00 | 78 | 1015.3 |
| 20260506050736 | 48 | 54 | 1.0 | 1.0 | 0.00 | 0.00 | 0.00 | 78 | 1015.4 |
| 20260506050233 | 49 | 56 | 0.0 | 2.0 | 0.00 | 0.00 | 0.00 | 77 | 1015.1 |
| 20260506044724 | 48 | 27 | 2.0 | 8.0 | 0.00 | 0.76 | 0.76 | 82 | 1015.0 |
| 20260506044221 | 48 | 4 | 6.0 | 10.0 | 0.00 | 0.76 | 0.76 | 94 | 1015.0 |
| 20260506043718 | 48 | 330 | 0.0 | 3.0 | 0.00 | 0.76 | 0.76 | 98 | 1015.1 |
| 20260506043216 | 48 | 300 | 1.0 | 5.0 | 0.00 | 0.76 | 0.76 | 98 | 1014.8 |
| 20260506042715 | 48 | 58 | 0.0 | 0.0 | 0.00 | 0.76 | 0.76 | 98 | 1014.6 |
| 20260506042213 | 48 | 58 | 0.0 | 0.0 | 0.00 | 0.76 | 0.76 | 98 | 1014.2 |
| 20260506041711 | 48 | 58 | 0.0 | 0.0 | 0.00 | 0.76 | 0.76 | 98 | 1014.4 |
| 20260506041208 | 48 | 58 | 0.0 | 0.0 | 0.00 | 0.76 | 0.76 | 98 | 1014.3 |
| 20260506040705 | 48 | 58 | 0.0 | 0.0 | 0.00 | 0.76 | 0.76 | 98 | 1014.6 |
| 20260506040202 | 48 | 58 | 0.0 | 0.0 | 0.00 | 0.76 | 0.76 | 98 | 1014.3 |
| 20260506035658 | 48 | 88 | 0.0 | 0.0 | 0.00 | 0.76 | 0.76 | 98 | 1014.2 |
| 20260506035155 | 48 | 84 | 0.0 | 0.0 | 0.00 | 0.76 | 0.76 | 98 | 1014.3 |
| 20260506034652 | 48 | 87 | 0.0 | 0.0 | 0.00 | 0.76 | 0.76 | 98 | 1014.2 |
| 20260506034149 | 49 | 84 | 0.0 | 0.0 | 0.00 | 0.76 | 0.76 | 98 | 1014.1 |
| 20260506033647 | 49 | 84 | 0.0 | 0.0 | 0.00 | 0.76 | 0.76 | 98 | 1014.0 |
| 20260506033143 | 48 | 84 | 0.0 | 0.0 | 0.00 | 0.76 | 0.76 | 98 | 1013.9 |
| 20260506032641 | 48 | 84 | 0.0 | 0.0 | 0.00 | 0.76 | 0.76 | 98 | 1013.8 |
| 20260506032138 | 48 | 84 | 0.0 | 0.0 | 0.00 | 0.76 | 0.76 | 98 | 1013.5 |
| 20260506031634 | 48 | 84 | 0.0 | 0.0 | 0.00 | 0.76 | 0.76 | 98 | 1013.5 |
| 20260506031131 | 48 | 84 | 0.0 | 0.0 | 0.00 | 0.76 | 0.76 | 98 | 1013.7 |
| 20260506030630 | 48 | 85 | 0.0 | 0.0 | 0.00 | 0.76 | 0.76 | 97 | 1013.5 |
| 20260506030127 | 48 | 85 | 0.0 | 0.0 | 0.00 | 0.76 | 0.76 | 97 | 1013.5 |
| 20260506025624 | 48 | 85 | 0.0 | 0.0 | 0.00 | 0.76 | 0.76 | 97 | 1013.4 |
| 20260506025119 | 48 | 85 | 0.0 | 0.0 | 0.00 | 0.76 | 0.76 | 97 | 1013.2 |
| 20260506024618 | 48 | 85 | 0.0 | 0.0 | 0.00 | 0.76 | 0.76 | 97 | 1013.1 |
| 20260506024113 | 48 | 85 | 0.0 | 0.0 | 0.00 | 0.76 | 0.76 | 97 | 1013.3 |
| 20260506023610 | 48 | 85 | 0.0 | 0.0 | 0.00 | 0.76 | 0.76 | 97 | 1012.9 |
| 20260506023107 | 48 | 85 | 0.0 | 0.0 | 0.00 | 0.76 | 0.76 | 96 | 1013.0 |
| 20260506022604 | 48 | 85 | 0.0 | 0.0 | 0.00 | 0.76 | 0.76 | 96 | 1013.0 |
| 20260506022101 | 48 | 85 | 0.0 | 0.0 | 0.00 | 0.76 | 0.76 | 96 | 1012.9 |
| 20260506021559 | 48 | 85 | 0.0 | 0.0 | 0.00 | 0.76 | 0.76 | 96 | 1012.7 |
| 20260506021050 | 48 | 85 | 0.0 | 0.0 | 0.00 | 0.76 | 0.76 | 96 | 1012.5 |
| 20260506020548 | 48 | 85 | 0.0 | 0.0 | 0.00 | 0.76 | 0.76 | 96 | 1012.5 |
| 20260506020045 | 48 | 85 | 0.0 | 0.0 | 0.00 | 0.76 | 0.76 | 95 | 1012.5 |
| 20260506015542 | 48 | 85 | 0.0 | 0.0 | 0.00 | 0.76 | 0.76 | 95 | 1012.2 |
| 20260506015039 | 49 | 85 | 0.0 | 0.0 | 0.00 | 0.76 | 0.76 | 95 | 1012.6 |
| 20260506014537 | 49 | 85 | 0.0 | 0.0 | 0.00 | 0.76 | 0.76 | 94 | 1012.2 |
| 20260506014032 | 49 | 85 | 0.0 | 0.0 | 0.00 | 0.76 | 0.76 | 94 | 1012.6 |
| 20260506013531 | 49 | 85 | 0.0 | 0.0 | 0.00 | 0.76 | 0.76 | 94 | 1012.2 |
| 20260506013027 | 49 | 85 | 0.0 | 0.0 | 0.00 | 0.76 | 0.76 | 93 | 1012.0 |
| 20260506012523 | 50 | 85 | 0.0 | 0.0 | 0.00 | 0.76 | 0.76 | 93 | 1012.1 |
| 20260506012020 | 50 | 85 | 0.0 | 0.0 | 0.00 | 0.76 | 0.76 | 93 | 1012.4 |
| 20260506011518 | 50 | 85 | 0.0 | 0.0 | 0.00 | 0.76 | 0.76 | 92 | 1012.2 |
| 20260506011013 | 50 | 85 | 0.0 | 0.0 | 0.00 | 0.76 | 0.76 | 92 | 1012.1 |
| 20260506010508 | 50 | 85 | 0.0 | 0.0 | 0.00 | 0.76 | 0.76 | 91 | 1012.3 |
| 20260506010004 | 50 | 85 | 0.0 | 0.0 | 0.00 | 0.76 | 0.76 | 91 | 1012.2 |
| 20260506005501 | 50 | 85 | 0.0 | 0.0 | 0.00 | 0.76 | 0.76 | 90 | 1012.2 |
| 20260506004956 | 50 | 85 | 0.0 | 0.0 | 0.00 | 0.76 | 0.76 | 90 | 1012.1 |
| 20260506004454 | 51 | 85 | 0.0 | 0.0 | 0.00 | 0.76 | 0.76 | 90 | 1012.3 |
| 20260506003950 | 51 | 85 | 0.0 | 0.0 | 0.00 | 0.76 | 0.76 | 89 | 1012.4 |
| 20260506003447 | 51 | 85 | 0.0 | 0.0 | 0.00 | 0.76 | 0.76 | 89 | 1012.4 |
| 20260506002943 | 51 | 85 | 0.0 | 0.0 | 0.00 | 0.76 | 0.76 | 88 | 1012.0 |
| 20260506002439 | 51 | 85 | 0.0 | 0.0 | 0.00 | 0.76 | 0.76 | 87 | 1012.0 |
| 20260506001935 | 51 | 85 | 0.0 | 0.0 | 0.00 | 0.76 | 0.76 | 86 | 1012.0 |
| 20260506001432 | 51 | 85 | 0.0 | 0.0 | 0.00 | 0.76 | 0.76 | 86 | 1011.6 |
| 20260506000929 | 51 | 85 | 0.0 | 0.0 | 0.00 | 0.76 | 0.76 | 86 | 1011.9 |
| 20260506000427 | 51 | 85 | 0.0 | 0.0 | 0.00 | 0.76 | 0.76 | 86 | 1011.7 |
| 20260505235923 | 51 | 85 | 0.0 | 0.0 | 0.00 | 0.76 | 0.76 | 86 | 1011.5 |
| 20260505235422 | 51 | 85 | 0.0 | 0.0 | 0.00 | 0.76 | 0.76 | 86 | 1011.4 |
| 20260505234918 | 51 | 85 | 0.0 | 0.0 | 0.00 | 0.76 | 0.76 | 87 | 1012.0 |
| 20260505234416 | 51 | 85 | 0.0 | 0.0 | 0.00 | 0.76 | 0.76 | 87 | 1011.9 |
| 20260505233912 | 51 | 85 | 0.0 | 0.0 | 0.00 | 0.76 | 0.76 | 87 | 1011.6 |
| 20260505233410 | 50 | 85 | 0.0 | 0.0 | 0.00 | 0.76 | 0.76 | 86 | 1012.0 |
| 20260505232907 | 50 | 85 | 0.0 | 0.0 | 0.00 | 0.76 | 0.76 | 86 | 1012.3 |
| 20260505232405 | 51 | 85 | 0.0 | 0.0 | 0.00 | 0.76 | 0.76 | 86 | 1011.9 |
| 20260505231901 | 51 | 85 | 0.0 | 0.0 | 0.00 | 0.76 | 0.76 | 86 | 1012.2 |
| 20260505231359 | 51 | 85 | 0.0 | 0.0 | 0.00 | 0.76 | 0.76 | 86 | 1012.1 |
| 20260505230857 | 51 | 85 | 0.0 | 0.0 | 0.00 | 0.76 | 0.76 | 85 | 1012.2 |
| 20260505230354 | 50 | 85 | 0.0 | 0.0 | 0.00 | 0.76 | 0.76 | 85 | 1012.0 |
| 20260505225851 | 50 | 85 | 0.0 | 0.0 | 0.00 | 0.76 | 0.76 | 84 | 1011.9 |
| 20260505225348 | 51 | 84 | 0.0 | 0.0 | 0.00 | 0.76 | 0.76 | 84 | 1012.0 |
| 20260505224843 | 51 | 76 | 0.0 | 0.0 | 0.00 | 0.76 | 0.76 | 84 | 1011.7 |
| 20260505224341 | 51 | 73 | 0.0 | 0.0 | 0.00 | 0.76 | 0.76 | 85 | 1011.9 |
| 20260505223838 | 51 | 42 | 0.0 | 0.0 | 0.00 | 0.76 | 0.76 | 85 | 1012.1 |
| 20260505223335 | 51 | 41 | 0.0 | 0.0 | 0.00 | 0.76 | 0.76 | 84 | 1011.7 |
| 20260505222831 | 52 | 40 | 0.0 | 0.0 | 0.00 | 0.76 | 0.76 | 86 | 1012.0 |
| 20260505222327 | 51 | 40 | 0.0 | 0.0 | 0.00 | 0.76 | 0.76 | 86 | 1012.0 |
| 20260505221824 | 51 | 40 | 0.0 | 0.0 | 0.00 | 0.76 | 0.76 | 84 | 1012.3 |
| 20260505221321 | 51 | 39 | 0.0 | 0.0 | 0.00 | 0.76 | 0.76 | 86 | 1012.0 |
| 20260505220818 | 51 | 32 | 0.0 | 0.0 | 0.00 | 0.76 | 0.76 | 86 | 1012.0 |
| 20260505220315 | 50 | 32 | 0.0 | 0.0 | 0.00 | 0.76 | 0.76 | 86 | 1011.6 |
| 20260505215813 | 50 | 31 | 0.0 | 0.0 | 0.00 | 0.76 | 0.76 | 85 | 1011.9 |
| 20260505215311 | 51 | 16 | 1.0 | 2.0 | 0.00 | 0.76 | 0.76 | 84 | 1012.0 |
| 20260505214808 | 50 | 29 | 0.0 | 0.0 | 0.00 | 0.76 | 0.76 | 84 | 1012.0 |
| 20260505214306 | 50 | 27 | 0.0 | 2.0 | 0.00 | 0.76 | 0.76 | 84 | 1011.9 |
| 20260505213803 | 50 | 32 | 2.0 | 2.0 | 0.00 | 0.76 | 0.76 | 85 | 1011.9 |
| 20260505213301 | 49 | 35 | 0.0 | 3.0 | 0.00 | 0.76 | 0.76 | 86 | 1012.2 |
| 20260505212755 | 49 | 73 | 0.0 | 0.0 | 0.00 | 0.76 | 0.76 | 88 | 1011.9 |
| 20260505212253 | 50 | 74 | 0.0 | 2.0 | 0.00 | 0.76 | 0.76 | 89 | 1012.2 |
| 20260505211750 | 50 | 43 | 0.0 | 0.0 | 0.00 | 0.76 | 0.76 | 88 | 1012.4 |
| 20260505211248 | 49 | 38 | 0.0 | 1.0 | 0.00 | 0.76 | 0.76 | 88 | 1012.2 |
| 20260505210743 | 49 | 39 | 0.0 | 1.0 | 0.00 | 0.76 | 0.76 | 88 | 1012.3 |
| 20260505210241 | 49 | 39 | 1.0 | 2.0 | 0.00 | 0.76 | 0.76 | 88 | 1012.3 |
| 20260505205738 | 49 | 39 | 1.0 | 2.0 | 0.00 | 0.76 | 0.76 | 89 | 1012.3 |
| 20260505205236 | 48 | 39 | 0.0 | 0.0 | 0.00 | 0.76 | 0.76 | 89 | 1012.2 |
| 20260505204732 | 49 | 39 | 1.0 | 2.0 | 0.00 | 0.76 | 0.76 | 90 | 1012.4 |
| 20260505204230 | 49 | 43 | 0.0 | 0.0 | 0.00 | 0.76 | 0.76 | 91 | 1012.5 |
| 20260505203727 | 48 | 43 | 0.0 | 0.0 | 0.00 | 0.76 | 0.76 | 91 | 1012.5 |
| 20260505203224 | 48 | 43 | 0.0 | 0.0 | 0.00 | 0.76 | 0.76 | 91 | 1012.5 |
| 20260505202720 | 48 | 43 | 1.0 | 1.0 | 0.00 | 0.76 | 0.76 | 91 | 1012.7 |
| 20260505202216 | 48 | 37 | 1.0 | 2.0 | 0.00 | 0.76 | 0.76 | 92 | 1012.5 |
| 20260505201713 | 48 | 48 | 1.0 | 2.0 | 0.00 | 0.76 | 0.76 | 92 | 1012.3 |
| 20260505201211 | 48 | 89 | 0.0 | 1.0 | 0.00 | 0.76 | 0.76 | 92 | 1012.4 |
| 20260505200708 | 48 | 89 | 0.0 | 1.0 | 0.00 | 0.76 | 0.76 | 91 | 1012.1 |
| 20260505200205 | 48 | 89 | 0.0 | 1.0 | 0.00 | 0.76 | 0.76 | 91 | 1012.2 |
| 20260505195701 | 48 | 98 | 0.0 | 0.0 | 0.00 | 0.76 | 0.76 | 91 | 1012.2 |
| 20260505195158 | 48 | 100 | 0.0 | 0.0 | 0.00 | 0.76 | 0.76 | 91 | 1012.3 |
| 20260505194655 | 48 | 100 | 0.0 | 0.0 | 0.00 | 0.76 | 0.76 | 91 | 1012.5 |
| 20260505194151 | 47 | 90 | 0.0 | 0.0 | 0.00 | 0.76 | 0.76 | 92 | 1012.5 |
| 20260505193648 | 48 | 89 | 0.0 | 0.0 | 0.00 | 0.76 | 0.76 | 92 | 1012.5 |
| 20260505193145 | 48 | 89 | 0.0 | 0.0 | 0.00 | 0.76 | 0.76 | 93 | 1012.3 |
| 20260505192644 | 48 | 89 | 0.0 | 0.0 | 0.00 | 0.76 | 0.76 | 93 | 1012.4 |
| 20260505192141 | 47 | 111 | 0.0 | 0.0 | 0.00 | 0.76 | 0.76 | 93 | 1012.4 |
| 20260505191639 | 48 | 112 | 0.0 | 0.0 | 0.00 | 0.76 | 0.76 | 93 | 1012.3 |
| 20260505191137 | 48 | 112 | 0.0 | 0.0 | 0.00 | 0.76 | 0.76 | 94 | 1012.3 |
| 20260505190633 | 47 | 112 | 0.0 | 0.0 | 0.00 | 0.76 | 0.76 | 94 | 1012.4 |
| 20260505190127 | 47 | 108 | 0.0 | 0.0 | 0.00 | 0.76 | 0.76 | 94 | 1012.1 |
| 20260505185625 | 47 | 99 | 0.0 | 0.0 | 0.00 | 0.76 | 0.76 | 95 | 1012.2 |
| 20260505185121 | 47 | 91 | 1.0 | 1.0 | 0.00 | 0.76 | 0.76 | 94 | 1012.5 |
| 20260505184617 | 47 | 74 | 0.0 | 0.0 | 0.00 | 0.76 | 0.76 | 95 | 1012.7 |
| 20260505184114 | 46 | 75 | 0.0 | 1.0 | 0.00 | 0.76 | 0.76 | 95 | 1012.7 |
| 20260505183611 | 47 | 84 | 0.0 | 1.0 | 0.00 | 0.76 | 0.76 | 95 | 1012.6 |
| 20260505183109 | 47 | 47 | 1.0 | 3.0 | 0.00 | 0.76 | 0.76 | 96 | 1012.6 |
| 20260505182605 | 47 | 100 | 0.0 | 2.0 | 0.00 | 0.76 | 0.76 | 96 | 1012.6 |
| 20260505182102 | 47 | 76 | 0.0 | 0.0 | 0.00 | 0.76 | 0.76 | 96 | 1012.9 |
| 20260505181558 | 46 | 75 | 0.0 | 0.0 | 0.00 | 0.76 | 0.76 | 96 | 1013.0 |
| 20260505181056 | 46 | 53 | 0.0 | 0.0 | 0.00 | 0.76 | 0.76 | 96 | 1013.1 |
| 20260505180551 | 46 | 64 | 0.0 | 0.0 | 0.00 | 0.76 | 0.76 | 97 | 1013.1 |
| 20260505180049 | 46 | 108 | 0.0 | 1.0 | 0.00 | 0.76 | 0.76 | 96 | 1012.9 |
| 20260505175544 | 46 | 39 | 0.0 | 2.0 | 0.00 | 0.76 | 0.76 | 96 | 1013.3 |
| 20260505175041 | 46 | 45 | 0.0 | 1.0 | 0.00 | 0.76 | 0.76 | 96 | 1013.5 |
| 20260505174538 | 47 | 9 | 0.0 | 1.0 | 0.00 | 0.76 | 0.76 | 96 | 1013.5 |
| 20260505174034 | 46 | 9 | 2.0 | 2.0 | 0.00 | 0.76 | 0.76 | 96 | 1013.1 |
| 20260505173531 | 46 | 57 | 1.0 | 1.0 | 0.00 | 0.76 | 0.76 | 96 | 1012.9 |
| 20260505173028 | 47 | 57 | 0.0 | 2.0 | 0.00 | 0.76 | 0.76 | 96 | 1013.2 |
| 20260505172526 | 47 | 76 | 0.0 | 0.0 | 0.00 | 0.76 | 0.76 | 96 | 1013.1 |
| 20260505172021 | 47 | 77 | 1.0 | 1.0 | 0.00 | 0.76 | 0.76 | 96 | 1013.3 |
| 20260505171517 | 46 | 126 | 0.0 | 2.0 | 0.00 | 0.76 | 0.76 | 96 | 1013.1 |
| 20260505171014 | 47 | 76 | 0.0 | 0.0 | 0.05 | 0.76 | 0.76 | 96 | 1013.0 |
| 20260505170511 | 47 | 70 | 0.0 | 1.0 | 0.05 | 0.76 | 0.76 | 96 | 1012.8 |
| 20260505170007 | 47 | 43 | 1.0 | 2.0 | 0.00 | 0.75 | 0.75 | 96 | 1012.6 |
| 20260505165502 | 47 | 69 | 0.0 | 2.0 | 0.07 | 0.75 | 0.75 | 97 | 1012.9 |
| 20260505164958 | 47 | 89 | 1.0 | 1.0 | 0.07 | 0.75 | 0.75 | 96 | 1012.9 |
| 20260505164454 | 47 | 76 | 0.0 | 0.0 | 0.00 | 0.74 | 0.74 | 97 | 1012.9 |
| 20260505163953 | 48 | 86 | 0.0 | 0.0 | 0.05 | 0.74 | 0.74 | 97 | 1013.0 |
| 20260505163450 | 48 | 100 | 0.0 | 1.0 | 0.05 | 0.74 | 0.74 | 97 | 1013.2 |
| 20260505162949 | 47 | 77 | 0.0 | 0.0 | 0.07 | 0.73 | 0.73 | 97 | 1013.5 |
| 20260505162440 | 48 | 76 | 0.0 | 2.0 | 0.12 | 0.73 | 0.73 | 97 | 1013.6 |
| 20260505161936 | 47 | 75 | 0.0 | 0.0 | 0.05 | 0.72 | 0.72 | 97 | 1013.1 |
| 20260505161433 | 48 | 74 | 0.0 | 1.0 | 0.07 | 0.71 | 0.71 | 97 | 1013.0 |
| 20260505160930 | 47 | 70 | 0.0 | 0.0 | 0.07 | 0.71 | 0.71 | 97 | 1013.1 |
| 20260505160428 | 47 | 70 | 0.0 | 0.0 | 0.00 | 0.70 | 0.70 | 97 | 1013.4 |
| 20260505152859 | 47 | 85 | 1.0 | 1.0 | 0.00 | 0.69 | 0.69 | 96 | 1012.9 |
| 20260505152356 | 47 | 54 | 0.0 | 1.0 | 0.00 | 0.69 | 0.69 | 95 | 1013.0 |
| 20260505151855 | 47 | 102 | 1.0 | 2.0 | 0.00 | 0.69 | 0.69 | 95 | 1012.9 |
| 20260505151353 | 48 | 59 | 0.0 | 1.0 | 0.05 | 0.69 | 0.69 | 95 | 1012.6 |
| 20260505150849 | 48 | 52 | 0.0 | 0.0 | 0.05 | 0.69 | 0.69 | 95 | 1012.6 |
| 20260505150341 | 48 | 46 | 1.0 | 1.0 | 0.07 | 0.68 | 0.68 | 95 | 1012.8 |
| 20260505140311 | 48 | 42 | 1.0 | 2.0 | 0.00 | 0.60 | 0.60 | 93 | 1012.6 |
| 20260505130234 | 48 | 79 | 0.0 | 0.0 | 0.00 | 0.57 | 0.57 | 93 | 1010.4 |
| 20260505124725 | 48 | 85 | 0.0 | 0.0 | 0.07 | 0.57 | 0.57 | 93 | 1010.2 |
| 20260505124222 | 48 | 84 | 0.0 | 0.0 | 0.00 | 0.56 | 0.56 | 93 | 1010.2 |
| 20260505123717 | 48 | 67 | 0.0 | 0.0 | 0.00 | 0.56 | 0.56 | 92 | 1010.2 |
| 20260505123214 | 49 | 67 | 0.0 | 0.0 | 0.00 | 0.56 | 0.56 | 92 | 1010.4 |
| 20260505122711 | 48 | 67 | 0.0 | 0.0 | 0.00 | 0.56 | 0.56 | 92 | 1010.2 |
| 20260505122208 | 48 | 67 | 0.0 | 0.0 | 0.00 | 0.56 | 0.56 | 92 | 1010.0 |
| 20260505121705 | 48 | 67 | 0.0 | 1.0 | 0.00 | 0.56 | 0.56 | 92 | 1010.2 |
| 20260505121201 | 48 | 66 | 0.0 | 1.0 | 0.00 | 0.56 | 0.56 | 91 | 1010.0 |
| 20260505120657 | 48 | 66 | 1.0 | 2.0 | 0.00 | 0.56 | 0.56 | 90 | 1009.7 |
| 20260505120154 | 48 | 65 | 0.0 | 0.0 | 0.05 | 0.56 | 0.56 | 89 | 1010.2 |
| 20260505115647 | 48 | 64 | 0.0 | 1.0 | 0.05 | 0.56 | 0.56 | 88 | 1010.4 |
| 20260505115146 | 49 | 68 | 0.0 | 0.0 | 0.00 | 0.55 | 0.55 | 87 | 1010.2 |
| 20260505114642 | 49 | 30 | 0.0 | 2.0 | 0.00 | 0.55 | 0.55 | 86 | 1009.9 |
| 20260505114139 | 49 | 65 | 0.0 | 2.0 | 0.00 | 0.55 | 0.55 | 87 | 1009.7 |
| 20260505113635 | 48 | 65 | 0.0 | 0.0 | 0.00 | 0.55 | 0.55 | 88 | 1010.0 |
| 20260505113132 | 48 | 65 | 1.0 | 2.0 | 0.00 | 0.55 | 0.55 | 90 | 1009.7 |
| 20260505112628 | 48 | 70 | 0.0 | 0.0 | 0.00 | 0.55 | 0.55 | 90 | 1009.6 |
| 20260505112126 | 48 | 70 | 0.0 | 0.0 | 0.00 | 0.55 | 0.55 | 90 | 1009.6 |
| 20260505111620 | 48 | 70 | 0.0 | 0.0 | 0.00 | 0.55 | 0.55 | 91 | 1009.5 |
| 20260505111116 | 48 | 70 | 0.0 | 0.0 | 0.00 | 0.55 | 0.55 | 91 | 1009.8 |
| 20260505110612 | 48 | 70 | 0.0 | 0.0 | 0.00 | 0.55 | 0.55 | 91 | 1009.9 |
| 20260505110109 | 48 | 69 | 0.0 | 0.0 | 0.00 | 0.55 | 0.55 | 91 | 1009.7 |
| 20260505102045 | 48 | 33 | 0.0 | 2.0 | 0.00 | 0.55 | 0.55 | 89 | 1009.8 |
| 20260505101543 | 48 | 70 | 0.0 | 2.0 | 0.00 | 0.55 | 0.55 | 90 | 1009.9 |
| 20260505101039 | 48 | 48 | 0.0 | 2.0 | 0.00 | 0.55 | 0.55 | 91 | 1009.8 |
| 20260505100536 | 48 | 43 | 1.0 | 1.0 | 0.00 | 0.55 | 0.55 | 91 | 1009.6 |